Weather History for KBML - January, 2012

Change the Weather History Date:

Thursday, January 5, 2012

  Actual Average Record
Temperature  
Mean Temperature 19 °F -  
Max Temperature 26 °F 24 °F 51 °F (2007)
Min Temperature 8 °F 4 °F -18 °F (1999)
Degree Days  
Heating Degree Days 46    
Moisture  
Dew Point 13 °F    
Average Humidity 75    
Maximum Humidity 86    
Minimum Humidity 59    
Precipitation  
Precipitation 0.00 in - - ()
Sea Level Pressure  
Sea Level Pressure 29.73 in    
Wind  
Wind Speed 2 mph (WNW)    
Max Wind Speed 12 mph    
Max Gust Speed 22 mph    
Visibility 6 miles    
Events Snow    
Averages and records for this station are not official NWS values.
T = Trace of Precipitation, MM = Missing Value Source: NWS Daily Summary

Daily Weather History Graph

Daily Weather History Graph

Search for Another Location

Airport or City:

Trip Planner

Search our weather history database for the weather conditions in past years. The results will help you decide how hot, cold, wet, or windy it might be!

Date:

Astronomy

Jan. 05, 2012 Rise Set
Actual Time 7:21 AM EST 4:18 PM EST
Civil Twilight 6:48 AM EST 4:51 PM EST
Nautical Twilight 6:11 AM EST 5:28 PM EST
Astronomical Twilight 5:36 AM EST 6:03 PM EST
Moon 1:19 PM EST (1/5) 4:03 AM EST (1/5)
Length of Visible Light 10h 03m
Length of Day
8h 57m
Waxing Gibbous, 87% of the Moon is Illuminated
Jan 5
Waxing Gibbous
Jan 9
Full
Jan 16
Last Quarter
Jan 23
New
Jan 30
First Quarter

Hourly Weather History & Observations

Time (EST) Temp. Windchill Dew Point Humidity Pressure Visibility Wind Dir Wind Speed Gust Speed Precip Events Conditions
12:52 AM 14.0 °F - 6.1 °F 71% 29.84 in 10.0 mi Calm Calm - N/A   Overcast
1:52 AM 15.1 °F - 6.1 °F 68% 29.83 in 10.0 mi Calm Calm - N/A   Overcast
2:52 AM 15.1 °F - 7.0 °F 70% 29.81 in 10.0 mi Calm Calm - N/A   Overcast
3:52 AM 16.0 °F - 10.0 °F 77% 29.79 in 8.0 mi Calm Calm - N/A   Overcast
4:52 AM 16.0 °F - 10.0 °F 77% 29.78 in 9.0 mi Calm Calm - N/A   Overcast
5:17 AM 15.8 °F - 10.4 °F 79% 29.71 in 10.0 mi Calm Calm - N/A   Overcast
5:41 AM 15.8 °F - 10.4 °F 79% 29.70 in 9.0 mi Calm Calm - N/A   Overcast
5:52 AM 16.0 °F - 10.0 °F 77% 29.77 in 9.0 mi Calm Calm - N/A   Overcast
6:52 AM 16.0 °F - 10.0 °F 77% 29.76 in 10.0 mi Calm Calm - N/A   Overcast
7:52 AM 16.0 °F - 12.0 °F 84% 29.77 in 10.0 mi Calm Calm - N/A   Overcast
8:52 AM 17.1 °F 11.7 °F 12.0 °F 81% 29.76 in 4.0 mi South 3.5 mph - 0.00 in Snow Light Snow
9:23 AM 17.6 °F - 12.2 °F 79% 29.69 in 1.8 mi Calm Calm - 0.00 in Snow Light Snow
9:30 AM 17.6 °F - 12.2 °F 79% 29.69 in 1.2 mi Calm Calm - 0.00 in Snow Light Snow
10:00 AM 19.4 °F - 14.0 °F 80% 29.69 in 1.2 mi Calm Calm - 0.00 in Snow Light Snow
10:05 AM 19.4 °F - 15.8 °F 86% 29.68 in 1.5 mi Calm Calm - 0.00 in Snow Light Snow
10:30 AM 19.4 °F - 15.8 °F 86% 29.67 in 1.0 mi Calm Calm - 0.00 in Snow Light Snow
10:52 AM 19.9 °F - 16.0 °F 85% 29.73 in 1.5 mi Calm Calm - 0.00 in Snow Light Snow
11:05 AM 19.4 °F - 15.8 °F 86% 29.65 in 2.0 mi Calm Calm - 0.00 in Snow Light Snow
11:16 AM 21.2 °F - 17.6 °F 86% 29.65 in 1.8 mi Calm Calm - 0.00 in Snow Light Snow
11:24 AM 21.2 °F - 17.6 °F 86% 29.65 in 2.5 mi Calm Calm - 0.00 in Snow Light Snow
11:35 AM 21.2 °F - 17.6 °F 86% 29.64 in 1.8 mi Calm Calm - 0.00 in Snow Light Snow
11:43 AM 21.2 °F - 17.6 °F 86% 29.65 in 1.8 mi Calm Calm - 0.00 in Snow Light Snow
11:48 AM 21.2 °F 16.4 °F 17.6 °F 86% 29.64 in 2.0 mi North 3.5 mph - 0.00 in Snow Light Snow
11:52 AM 23.0 °F 18.4 °F 18.0 °F 81% 29.71 in 2.5 mi North 3.5 mph - 0.00 in Snow Light Snow
11:59 AM 23.0 °F 17.0 °F 17.6 °F 80% 29.64 in 6.0 mi North 4.6 mph - 0.00 in Snow Light Snow
12:14 PM 24.8 °F 20.5 °F 17.6 °F 74% 29.64 in 4.0 mi North 3.5 mph - 0.00 in Snow Light Snow
12:27 PM 26.6 °F 19.1 °F 17.6 °F 69% 29.64 in 2.0 mi WNW 6.9 mph - 0.00 in Snow Light Snow
12:41 PM 24.8 °F 16.1 °F 17.6 °F 74% 29.65 in 3.0 mi WNW 8.1 mph - 0.00 in Snow Light Snow
12:52 PM 25.0 °F 19.3 °F 18.0 °F 75% 29.70 in 3.0 mi Variable 4.6 mph - 0.00 in Snow Light Snow
1:05 PM 24.8 °F 15.3 °F 17.6 °F 74% 29.64 in 2.5 mi West 9.2 mph - 0.00 in Snow Light Snow
1:17 PM 24.8 °F 16.9 °F 17.6 °F 74% 29.65 in 4.0 mi West 6.9 mph - 0.00 in Snow Light Snow
1:29 PM 24.8 °F 20.5 °F 17.6 °F 74% 29.65 in 8.0 mi Variable 3.5 mph - 0.00 in   Overcast
1:52 PM 25.0 °F 17.1 °F 16.0 °F 69% 29.72 in 10.0 mi Variable 6.9 mph - 0.00 in   Overcast
2:22 PM 24.8 °F 15.3 °F 15.8 °F 69% 29.66 in 1.8 mi WNW 9.2 mph 21.9 mph 0.00 in Snow Light Snow
2:26 PM 24.8 °F 17.9 °F 17.6 °F 74% 29.66 in 0.8 mi West 5.8 mph 21.9 mph 0.00 in Snow Light Snow
2:36 PM 24.8 °F 15.3 °F 15.8 °F 69% 29.67 in 1.5 mi West 9.2 mph - 0.00 in Snow Light Snow
2:40 PM 24.8 °F 16.1 °F 14.0 °F 64% 29.67 in 3.0 mi West 8.1 mph 17.3 mph 0.00 in Snow Light Snow
2:52 PM 24.1 °F 13.7 °F 12.0 °F 60% 29.74 in 10.0 mi West 10.4 mph - 0.00 in   Overcast
3:52 PM 21.9 °F 14.5 °F 10.0 °F 60% 29.78 in 6.0 mi Variable 5.8 mph 16.1 mph 0.00 in Snow Light Snow
4:52 PM 21.0 °F 11.4 °F 10.0 °F 63% 29.79 in 8.0 mi West 8.1 mph 17.3 mph 0.00 in Snow Light Snow
5:52 PM 19.9 °F 8.6 °F 8.1 °F 60% 29.81 in 10.0 mi WNW 10.4 mph - 0.00 in   Clear
7:52 PM 19.0 °F 6.8 °F 7.0 °F 59% 29.86 in 10.0 mi WNW 11.5 mph 18.4 mph 0.00 in   Overcast
8:52 PM 19.0 °F 10.0 °F 8.1 °F 62% 29.86 in 10.0 mi NW 6.9 mph - N/A   Overcast
9:52 PM 18.0 °F 12.7 °F 8.1 °F 65% 29.87 in 10.0 mi Variable 3.5 mph - N/A   Overcast
10:52 PM 17.1 °F - 7.0 °F 65% 29.86 in 10.0 mi Calm Calm - N/A   Overcast
11:40 PM 12.2 °F - 8.6 °F 85% 29.80 in 10.0 mi Calm Calm - N/A   Overcast
11:52 PM 8.1 °F - 3.9 °F 83% 29.87 in 10.0 mi Calm Calm - N/A   Mostly Cloudy